KC1HBM Weather Reports


time (UTC)temp
C
wind
direction
speed
KPH
gust
KPH
rain 1hr
cm
rain 24hr
cm
rain mn
cm
humidity
%
barometer
mb
20260510102551 8 320 1.6 1.6 0.00 0.00 0.00 99 1010.0
20260510102048 8 337 1.6 1.6 0.00 0.00 0.00 99 1009.8
20260510101546 8 309 1.6 1.6 0.00 0.00 0.00 99 1009.5
20260510101044 9 291 0.0 3.2 0.00 0.00 0.00 99 1009.4
20260510100539 9 311 0.0 0.0 0.00 0.00 0.00 99 1009.6
20260510100037 8 315 0.0 0.0 0.00 0.00 0.00 99 1009.8
20260510095533 8 310 0.0 0.0 0.00 0.00 0.00 99 1009.6
20260510095032 8 311 0.0 0.0 0.00 0.00 0.00 99 1009.6
20260510094527 8 309 0.0 0.0 0.00 0.00 0.00 99 1009.4
20260510094023 8 313 0.0 0.0 0.00 0.00 0.00 99 1009.6
20260510093519 8 315 0.0 0.0 0.00 0.00 0.00 99 1009.7
20260510093016 8 317 0.0 0.0 0.00 0.00 0.00 99 1009.5
20260510092513 8 316 0.0 0.0 0.00 0.00 0.00 99 1009.5
20260510092012 9 311 0.0 0.0 0.00 0.00 0.00 99 1009.7
20260510091509 8 333 1.6 1.6 0.00 0.00 0.00 99 1009.4
20260510091005 8 320 1.6 1.6 0.00 0.00 0.00 99 1009.6
20260510090503 8 302 0.0 0.0 0.00 0.00 0.00 99 1009.7
20260510085958 8 316 0.0 0.0 0.00 0.00 0.00 99 1009.6
20260510085453 8 316 0.0 0.0 0.00 0.00 0.00 99 1009.6
20260510084949 8 314 0.0 0.0 0.00 0.00 0.00 99 1009.6
20260510084446 9 326 1.6 3.2 0.00 0.00 0.00 99 1009.3
20260510083943 8 331 0.0 1.6 0.00 0.00 0.00 99 1009.1
20260510083439 8 313 0.0 0.0 0.00 0.00 0.00 99 1008.9
20260510082934 9 308 0.0 0.0 0.00 0.00 0.00 99 1009.2
20260510082433 9 311 0.0 0.0 0.00 0.00 0.00 99 1009.3
20260510081932 9 311 0.0 0.0 0.00 0.00 0.00 99 1009.5
20260510081428 9 305 0.0 0.0 0.00 0.00 0.00 99 1009.7
20260510080924 9 312 0.0 0.0 0.00 0.00 0.00 99 1009.5
20260510080423 9 314 0.0 0.0 0.00 0.00 0.00 99 1009.4
20260510075920 9 326 1.6 1.6 0.00 0.00 0.00 99 1009.7
20260510075418 9 322 1.6 1.6 0.00 0.00 0.00 99 1009.5
20260510074914 9 321 0.0 1.6 0.00 0.00 0.00 99 1009.6
20260510074412 9 314 0.0 0.0 0.00 0.00 0.00 99 1009.4
20260510073908 8 318 0.0 1.6 0.00 0.00 0.00 99 1009.2
20260510073403 8 306 1.6 1.6 0.00 0.00 0.00 99 1009.3
20260510072900 8 314 0.0 0.0 0.00 0.00 0.00 99 1009.2
20260510072357 8 309 0.0 0.0 0.00 0.00 0.00 99 1009.4
20260510071853 8 311 0.0 0.0 0.00 0.00 0.00 99 1009.0
20260510071349 8 300 1.6 1.6 0.00 0.00 0.00 99 1009.4
20260510070848 8 311 0.0 0.0 0.00 0.00 0.00 99 1009.5
20260510070344 8 313 0.0 0.0 0.00 0.00 0.00 99 1009.4
20260510065839 8 313 0.0 0.0 0.00 0.00 0.00 99 1009.6
20260510065336 9 311 0.0 0.0 0.00 0.00 0.00 99 1009.3
20260510064833 8 310 0.0 0.0 0.00 0.00 0.00 99 1009.7
20260510064331 9 314 0.0 0.0 0.00 0.00 0.00 99 1009.7
20260510063826 9 313 0.0 0.0 0.00 0.00 0.00 99 1009.9
20260510063323 9 335 0.0 0.0 0.00 0.00 0.00 99 1009.8
20260510062820 9 309 0.0 0.0 0.00 0.00 0.00 99 1009.9
20260510062315 9 313 0.0 0.0 0.00 0.00 0.00 99 1010.0
20260510061810 9 326 1.6 1.6 0.00 0.00 0.00 99 1010.2
20260510061308 9 320 0.0 0.0 0.00 0.00 0.00 99 1010.2
20260510060804 9 313 0.0 0.0 0.00 0.00 0.00 99 1009.9
20260510060256 9 314 0.0 1.6 0.00 0.00 0.00 99 1010.1
20260510055752 9 316 0.0 0.0 0.00 0.00 0.00 99 1010.1
20260510055251 9 313 0.0 0.0 0.00 0.00 0.00 99 1010.3
20260510054750 8 322 1.6 1.6 0.00 0.00 0.00 99 1010.1
20260510054247 8 309 0.0 0.0 0.00 0.00 0.00 99 1010.3
20260510053746 8 309 1.6 1.6 0.00 0.00 0.00 99 1010.4
20260510053242 8 311 0.0 0.0 0.00 0.00 0.00 99 1010.4
20260510052738 9 314 0.0 0.0 0.00 0.00 0.00 99 1010.5
20260510052234 9 316 0.0 0.0 0.00 0.00 0.00 99 1010.5
20260510051730 9 324 1.6 1.6 0.00 0.00 0.00 99 1010.5
20260510051227 9 321 1.6 3.2 0.00 0.00 0.00 99 1010.4
20260510050724 9 316 0.0 0.0 0.00 0.00 0.00 99 1010.3
20260510050222 8 335 1.6 1.6 0.00 0.00 0.00 99 1010.4
20260510045718 8 309 0.0 0.0 0.00 0.00 0.00 99 1010.3
20260510045215 8 306 0.0 0.0 0.00 0.00 0.00 99 1010.2
20260510044711 8 309 0.0 0.0 0.00 0.00 0.00 99 1010.4
20260510044210 8 307 0.0 0.0 0.00 0.00 0.00 99 1010.4
20260510043704 8 304 0.0 0.0 0.00 0.00 0.00 99 1010.7
20260510043201 8 314 0.0 0.0 0.00 0.00 0.00 99 1010.5
20260510042658 8 311 0.0 0.0 0.00 0.00 0.00 99 1010.7
20260510042154 8 314 0.0 0.0 0.00 0.00 0.00 99 1010.6
20260510041652 8 311 0.0 0.0 0.00 0.00 0.00 99 1010.8
20260510041149 8 311 0.0 0.0 0.00 0.00 0.00 99 1010.9
20260510040646 8 313 0.0 0.0 0.00 0.00 0.00 99 1010.7
20260510040143 8 311 0.0 0.0 0.00 0.00 0.00 99 1010.6
20260510035638 8 311 0.0 0.0 0.00 1.07 1.07 99 1010.8
20260510035133 8 311 0.0 0.0 0.00 1.07 1.07 99 1010.7
20260510034630 8 311 0.0 0.0 0.00 1.07 1.07 99 1010.9
20260510034127 8 309 0.0 0.0 0.00 1.07 1.07 99 1011.0
20260510033624 8 309 0.0 0.0 0.00 1.07 1.07 99 1011.2
20260510033121 8 306 0.0 1.6 0.00 1.07 1.07 99 1011.0
20260510032618 8 308 1.6 1.6 0.00 1.07 1.07 99 1011.1
20260510032113 8 310 0.0 0.0 0.00 1.07 1.07 99 1011.1
20260510031608 7 310 0.0 0.0 0.00 1.07 1.07 99 1011.2
20260510031105 7 309 0.0 0.0 0.00 1.07 1.07 99 1011.3
20260510030600 7 309 0.0 0.0 0.00 1.07 1.07 99 1011.2
20260510030057 7 311 0.0 0.0 0.00 1.07 1.07 99 1011.2
20260510025554 7 311 0.0 0.0 0.00 1.07 1.07 99 1011.1
20260510025052 7 309 0.0 0.0 0.00 1.07 1.07 99 1011.2
20260510024548 7 311 0.0 0.0 0.00 1.07 1.07 99 1011.2
20260510024045 7 309 0.0 0.0 0.00 1.07 1.07 99 1011.3
20260510023541 7 313 0.0 0.0 0.00 1.07 1.07 99 1011.3
20260510023039 7 315 0.0 0.0 0.00 1.07 1.07 99 1011.1
20260510022537 7 311 0.0 0.0 0.00 1.07 1.07 99 1011.3
20260510022031 7 314 0.0 0.0 0.00 1.07 1.07 99 1011.2
20260510021523 7 312 0.0 0.0 0.00 1.07 1.07 99 1011.2
20260510021021 7 311 0.0 0.0 0.00 1.07 1.07 99 1011.3
20260510020515 7 309 0.0 0.0 0.00 1.07 1.07 99 1011.2
20260510020011 7 311 0.0 0.0 0.00 1.07 1.07 99 1011.4
20260510015506 7 306 0.0 0.0 0.00 1.07 1.07 99 1011.4
20260510015003 7 296 0.0 0.0 0.00 1.07 1.07 99 1011.4
20260510014500 7 313 0.0 0.0 0.00 1.07 1.07 99 1011.4
20260510013956 7 311 0.0 0.0 0.00 1.07 1.07 99 1011.3
20260510013451 7 313 0.0 0.0 0.00 1.07 1.07 99 1011.3
20260510012947 7 312 0.0 0.0 0.00 1.07 1.07 99 1011.3
20260510012442 7 313 0.0 0.0 0.00 1.07 1.07 99 1011.3
20260510011937 7 313 0.0 0.0 0.00 1.07 1.07 99 1011.2
20260510011432 7 308 0.0 0.0 0.00 1.07 1.07 99 1011.0
20260510010928 7 314 0.0 0.0 0.00 1.07 1.07 99 1011.0
20260510010426 7 311 0.0 0.0 0.00 1.07 1.07 99 1011.0
20260510005922 7 311 0.0 0.0 0.00 1.07 1.07 99 1011.1
20260510005418 7 308 0.0 0.0 0.00 1.07 1.07 99 1010.9
20260510004916 7 309 0.0 0.0 0.00 1.07 1.07 99 1011.0
20260510004413 7 307 0.0 0.0 0.00 1.07 1.07 99 1011.1
20260510003911 7 313 0.0 0.0 0.00 1.07 1.07 99 1010.9
20260510003408 7 292 1.6 3.2 0.00 1.07 1.07 99 1010.8
20260510002907 7 293 1.6 1.6 0.00 1.07 1.07 99 1010.9
20260510002404 7 295 1.6 3.2 0.00 1.07 1.07 99 1011.0
20260510001901 7 296 1.6 1.6 0.00 1.07 1.07 99 1011.1
20260510001358 7 308 0.0 0.0 0.00 1.07 1.07 99 1011.3
20260510000855 7 308 0.0 0.0 0.00 1.07 1.07 99 1011.5
20260510000351 7 311 0.0 0.0 0.00 1.07 1.07 99 1011.4
20260509235848 7 315 0.0 0.0 0.00 1.07 1.07 99 1011.3
20260509235345 7 302 1.6 1.6 0.00 1.07 1.07 99 1011.4
20260509234841 7 311 0.0 0.0 0.00 1.07 1.07 99 1011.2
20260509234338 7 308 0.0 0.0 0.00 1.07 1.07 99 1011.3
20260509233836 7 307 0.0 0.0 0.00 1.07 1.07 99 1011.2
20260509233333 7 308 0.0 0.0 0.00 1.07 1.07 99 1011.2
20260509232829 7 308 0.0 0.0 0.00 1.07 1.07 99 1011.0
20260509232327 7 307 0.0 1.6 0.00 1.07 1.07 99 1011.2
20260509231823 7 300 4.8 4.8 0.00 1.07 1.07 99 1010.8
20260509231320 7 262 8.0 9.7 0.00 1.07 1.07 99 1011.0
20260509230818 7 280 6.4 8.0 0.13 1.07 1.07 99 1010.9
20260509230315 7 278 4.8 4.8 0.13 1.07 1.07 99 1011.4
20260509225809 7 290 3.2 3.2 0.18 1.04 1.04 99 1011.3
20260509225307 7 294 3.2 3.2 0.18 1.04 1.04 99 1011.1
20260509224802 7 270 6.4 8.0 0.13 1.02 1.02 99 1011.0
20260509224259 7 287 4.8 4.8 0.13 1.02 1.02 99 1011.0
20260509223755 7 290 4.8 4.8 0.00 0.99 0.99 99 1011.1
20260509223253 7 299 3.2 3.2 0.18 0.99 0.99 99 1011.2
20260509222749 7 305 3.2 3.2 0.18 0.99 0.99 99 1011.2
20260509222245 7 303 3.2 3.2 0.00 0.97 0.97 99 1011.1
20260509221740 7 276 1.6 3.2 0.13 0.97 0.97 99 1011.3
20260509221237 7 295 3.2 4.8 0.30 0.97 0.97 99 1011.5
20260509220733 7 311 1.6 3.2 0.18 0.94 0.94 99 1011.8
20260509220230 7 298 3.2 3.2 0.00 0.91 0.91 99 1011.8
20260509215725 7 291 3.2 3.2 0.13 0.91 0.91 99 1011.8
20260509215222 7 298 4.8 4.8 0.13 0.91 0.91 99 1011.5
20260509214719 7 300 4.8 8.0 0.18 0.89 0.89 99 1011.8
20260509214216 7 298 4.8 4.8 0.18 0.89 0.89 99 1012.0
20260509213713 7 308 4.8 4.8 0.18 0.86 0.86 99 1012.2
20260509213208 7 297 4.8 4.8 0.30 0.86 0.86 99 1012.2
20260509212707 7 279 3.2 3.2 0.13 0.84 0.84 99 1012.1
20260509212203 7 298 3.2 3.2 0.00 0.81 0.81 99 1012.4
20260509211659 7 306 0.0 1.6 0.00 0.81 0.81 99 1012.0
20260509211156 7 302 1.6 1.6 0.18 0.81 0.81 99 1012.2
20260509210652 7 285 4.8 8.0 0.18 0.81 0.81 99 1012.2
20260509210144 7 307 4.8 4.8 0.00 0.79 0.79 99 1012.2
20260509205639 7 293 3.2 3.2 0.00 0.79 0.79 99 1012.2
20260509205138 7 289 3.2 3.2 0.00 0.79 0.79 99 1012.0
20260509204635 7 300 4.8 4.8 0.00 0.79 0.79 99 1012.0
20260509204131 7 283 4.8 4.8 0.00 0.79 0.79 99 1011.8
20260509203627 7 273 6.4 8.0 0.00 0.79 0.79 99 1011.9
20260509203126 7 303 3.2 3.2 0.00 0.79 0.79 99 1012.0
20260509202625 7 306 3.2 3.2 0.00 0.79 0.79 99 1011.9
20260509202121 7 276 4.8 8.0 0.00 0.79 0.79 99 1011.4
20260509201616 7 302 3.2 3.2 0.00 0.79 0.79 99 1011.5
20260509201114 7 298 6.4 8.0 0.13 0.79 0.79 99 1012.3
20260509200615 7 287 3.2 3.2 0.13 0.79 0.79 99 1012.5
20260509200105 7 307 3.2 3.2 0.00 0.76 0.76 99 1012.9
20260509195601 7 303 1.6 3.2 0.00 0.76 0.76 99 1013.0
20260509195056 7 307 1.6 1.6 0.18 0.76 0.76 99 1012.9
20260509194555 7 300 1.6 3.2 0.30 0.76 0.76 99 1013.0
20260509194054 7 309 1.6 1.6 0.13 0.74 0.74 99 1012.8
20260509193548 7 314 0.0 1.6 0.13 0.74 0.74 99 1013.0
20260509193045 7 303 3.2 3.2 0.18 0.71 0.71 99 1012.9
20260509192542 7 309 1.6 1.6 0.18 0.71 0.71 99 1012.8
20260509192037 7 314 1.6 3.2 0.13 0.69 0.69 99 1012.8
20260509191531 7 314 1.6 1.6 0.30 0.69 0.69 99 1013.0
20260509191027 7 312 1.6 1.6 0.30 0.66 0.66 99 1013.0
20260509190525 7 291 4.8 4.8 0.30 0.64 0.64 99 1013.0
20260509190023 7 309 0.0 1.6 0.36 0.61 0.61 99 1013.1
20260509185520 7 310 1.6 1.6 0.48 0.61 0.61 99 1013.1
20260509185016 7 312 1.6 1.6 0.30 0.56 0.56 99 1013.2
20260509184514 7 311 3.2 3.2 0.30 0.53 0.53 99 1013.4
20260509184010 7 300 0.0 1.6 0.30 0.51 0.51 99 1013.4
20260509183505 7 306 1.6 1.6 0.30 0.48 0.48 99 1013.4
20260509183002 7 311 1.6 1.6 0.13 0.46 0.46 99 1013.3
20260509182458 7 312 0.0 1.6 0.18 0.43 0.43 99 1013.3
20260509181955 7 311 1.6 1.6 0.30 0.43 0.43 98 1013.6
20260509181454 7 308 1.6 1.6 0.43 0.41 0.41 98 1013.5
20260509180951 7 315 1.6 1.6 0.48 0.38 0.38 98 1013.5
20260509180446 7 326 0.0 1.6 0.48 0.33 0.33 97 1013.5
20260509175943 7 311 1.6 1.6 0.48 0.30 0.30 97 1013.4
20260509175439 7 311 0.0 1.6 0.30 0.25 0.25 96 1013.3
20260509174936 7 304 1.6 1.6 0.30 0.23 0.23 96 1013.2
20260509174432 7 311 1.6 1.6 0.18 0.20 0.20 95 1013.3
20260509173927 8 325 0.0 1.6 0.13 0.18 0.18 95 1013.3
20260509173421 8 326 0.0 1.6 0.18 0.15 0.15 94 1013.5
20260509172918 8 327 0.0 0.0 0.30 0.15 0.15 94 1013.4
20260509172415 8 328 0.0 0.0 0.30 0.13 0.13 93 1013.3
20260509171911 8 329 0.0 0.0 0.30 0.10 0.10 91 1013.1
20260509171407 8 329 1.6 1.6 0.30 0.08 0.08 90 1013.4
20260509170903 8 331 0.0 0.0 0.18 0.05 0.05 88 1013.3
20260509170359 8 335 1.6 3.2 0.13 0.03 0.03 85 1013.5
20260509165855 9 330 1.6 1.6 0.13 0.03 0.03 83 1013.3
20260509165349 10 328 0.0 1.6 0.00 0.00 0.00 80 1013.3
20260509164845 10 328 1.6 1.6 0.00 0.00 0.00 79 1013.4
20260509164341 9 330 1.6 1.6 0.00 0.00 0.00 76 1013.3
20260509163838 10 355 1.6 1.6 0.00 0.00 0.00 75 1013.4
20260509163334 10 355 0.0 1.6 0.00 0.00 0.00 74 1013.5
20260509162833 10 356 1.6 8.0 0.00 0.00 0.00 73 1013.3
20260509162326 10 356 4.8 8.0 0.00 0.00 0.00 69 1013.4
20260509161823 10 334 1.6 3.2 0.00 0.00 0.00 66 1013.5
20260509161320 10 332 1.6 1.6 0.00 0.00 0.00 66 1013.5
20260509160815 10 338 1.6 1.6 0.00 0.00 0.00 67 1013.5
20260509160311 10 340 4.8 4.8 0.00 0.00 0.00 65 1013.4
20260509155806 10 331 0.0 0.0 0.00 0.00 0.00 66 1013.4
20260509155306 10 339 4.8 4.8 0.00 0.00 0.00 64 1013.5
20260509154759 11 333 1.6 1.6 0.00 0.00 0.00 62 1013.6
20260509154256 11 332 1.6 3.2 0.00 0.00 0.00 63 1013.5
20260509153753 11 341 1.6 3.2 0.00 0.00 0.00 61 1013.6
20260509153249 11 337 3.2 3.2 0.00 0.00 0.00 58 1013.4
20260509152746 11 337 1.6 4.8 0.00 0.00 0.00 58 1013.3
20260509152242 11 335 0.0 1.6 0.00 0.00 0.00 57 1013.5
20260509151739 11 335 3.2 3.2 0.00 0.00 0.00 58 1013.4
20260509151236 11 335 1.6 1.6 0.00 0.00 0.00 57 1013.1
20260509150734 12 335 0.0 1.6 0.00 0.00 0.00 56 1013.0
20260509150232 12 336 1.6 3.2 0.00 0.00 0.00 56 1013.0
20260509145729 12 336 3.2 3.2 0.00 0.00 0.00 55 1012.7
20260509145223 12 332 3.2 3.2 0.00 0.00 0.00 52 1012.8
20260509144720 12 332 1.6 3.2 0.00 0.00 0.00 53 1012.8
20260509144217 12 332 3.2 3.2 0.00 0.00 0.00 52 1012.8
20260509143714 13 331 1.6 1.6 0.00 0.00 0.00 52 1012.8
20260509143211 13 322 3.2 3.2 0.00 0.00 0.00 51 1012.5
20260509142706 12 337 3.2 3.2 0.00 0.00 0.00 51 1012.7
20260509142204 12 339 3.2 3.2 0.00 0.00 0.00 51 1012.6
20260509141659 13 339 3.2 3.2 0.00 0.00 0.00 49 1012.6
20260509141156 12 339 3.2 3.2 0.00 0.00 0.00 51 1012.7
20260509140653 13 321 1.6 1.6 0.00 0.00 0.00 50 1012.6
20260509140151 13 315 0.0 1.6 0.00 0.00 0.00 48 1012.8
20260509135648 13 318 0.0 1.6 0.00 0.00 0.00 48 1012.7
20260509135146 13 322 1.6 1.6 0.00 0.00 0.00 47 1012.7
20260509134642 13 326 1.6 3.2 0.00 0.00 0.00 46 1012.6
20260509134140 13 319 1.6 1.6 0.00 0.00 0.00 44 1012.7
20260509133637 14 308 3.2 3.2 0.00 0.00 0.00 47 1012.8
20260509133134 14 307 3.2 3.2 0.00 0.00 0.00 49 1012.9
20260509132632 14 313 1.6 1.6 0.00 0.00 0.00 45 1012.7
20260509132130 14 307 3.2 4.8 0.00 0.00 0.00 48 1012.9
20260509131626 13 310 3.2 3.2 0.00 0.00 0.00 45 1012.9
20260509131123 13 321 0.0 1.6 0.00 0.00 0.00 47 1012.8
20260509130619 14 305 0.0 0.0 0.00 0.00 0.00 49 1012.9
20260509130115 14 305 0.0 0.0 0.00 0.00 0.00 52 1012.7
20260509125612 15 309 1.6 3.2 0.00 0.00 0.00 51 1012.8
20260509125109 14 306 0.0 1.6 0.00 0.00 0.00 52 1013.0
20260509124605 14 308 1.6 1.6 0.00 0.00 0.00 51 1012.9
20260509124103 14 311 0.0 1.6 0.00 0.00 0.00 51 1013.0
20260509123600 13 311 1.6 1.6 0.00 0.00 0.00 53 1012.9
20260509123057 13 311 0.0 1.6 0.00 0.00 0.00 52 1013.2
20260509122553 14 308 1.6 1.6 0.00 0.00 0.00 51 1013.0
20260509122050 14 308 1.6 3.2 0.00 0.00 0.00 53 1013.2
20260509121546 14 309 3.2 3.2 0.00 0.00 0.00 54 1012.9
20260509121048 14 309 0.0 0.0 0.00 0.00 0.00 58 1013.1
20260509120542 13 309 0.0 0.0 0.00 0.00 0.00 59 1012.9
20260509120041 12 309 0.0 0.0 0.00 0.00 0.00 58 1013.1
20260509115537 13 309 0.0 0.0 0.00 0.00 0.00 58 1012.9
20260509115035 12 309 0.0 1.6 0.00 0.00 0.00 62 1012.7
20260509114533 12 309 1.6 1.6 0.00 0.00 0.00 62 1012.8
20260509114031 12 309 1.6 1.6 0.00 0.00 0.00 60 1013.2
20260509113529 13 309 0.0 0.0 0.00 0.00 0.00 60 1012.9
20260509113027 12 309 0.0 0.0 0.00 0.00 0.00 58 1012.9
20260509112523 12 309 0.0 0.0 0.00 0.00 0.00 57 1013.0
20260509112020 11 309 0.0 0.0 0.00 0.00 0.00 62 1013.1
20260509111517 12 309 0.0 0.0 0.00 0.00 0.00 59 1013.1
20260509111014 12 309 0.0 0.0 0.00 0.00 0.00 62 1013.1
20260509110511 11 309 0.0 0.0 0.00 0.00 0.00 64 1013.1
20260509110008 11 309 0.0 0.0 0.00 0.00 0.00 64 1012.8
20260509105506 11 309 0.0 0.0 0.00 0.00 0.00 64 1013.1
20260509105003 11 309 0.0 0.0 0.00 0.00 0.00 66 1012.7
20260509104500 10 309 0.0 0.0 0.00 0.00 0.00 70 1012.8
20260509103957 8 310 0.0 0.0 0.00 0.00 0.00 78 1012.7
20260509103455 8 312 0.0 0.0 0.00 0.00 0.00 80 1012.7
20260509102953 7 310 0.0 0.0 0.00 0.00 0.00 83 1012.5